When you browse on this site, cookies collect data to enhance your experience and personalize the content and advertising you see.
Visit our Privacy Policy to learn more. By continuing to use the site, you agree to this use of cookies and data.
  • In Lithuania
  • List of Countries
  • For 7 days
  • Water Temperature
  • Weather Map
  • Weather Widgets
  • user-avatar
    Login

    Hourly Weather Haleb

    Today, 30 March, Monday

    Time Temperature Precipitation Wind Pressure Humidity
    00:00 +9°C° 0.6 mm 6 mps 718 mmHg 86%
    01:00 +9°C° 0.6 mm 6 mps 717 mmHg 87%
    02:00 +9°C° 0 mm 7 mps 718 mmHg 84%
    03:00 +9°C° 0.1 mm 6 mps 718 mmHg 86%
    04:00 +8°C° 0.1 mm 6 mps 718 mmHg 88%
    05:00 +8°C° 0.1 mm 5 mps 718 mmHg 90%
    06:00 +9°C° 0.2 mm 6 mps 718 mmHg 83%
    07:00 +10°C° 0.2 mm 6 mps 719 mmHg 77%
    08:00 +12°C° 0 mm 7 mps 719 mmHg 70%
    09:00 +13°C° 0.1 mm 8 mps 719 mmHg 64%
    10:00 +15°C° 0.1 mm 8 mps 719 mmHg 57%
    11:00 +17°C° 0.1 mm 9 mps 720 mmHg 51%
    12:00 +17°C° 0 mm 9 mps 720 mmHg 51%
    13:00 +17°C° 0 mm 10 mps 719 mmHg 51%
    14:00 +17°C° 0 mm 10 mps 719 mmHg 50%
    15:00 +16°C° 0 mm 9 mps 719 mmHg 55%
    16:00 +15°C° 0 mm 8 mps 720 mmHg 59%
    17:00 +13°C° 0 mm 8 mps 720 mmHg 63%
    18:00 +13°C° 0 mm 6 mps 720 mmHg 70%
    19:00 +12°C° 0 mm 5 mps 720 mmHg 77%
    20:00 +11°C° 0 mm 4 mps 721 mmHg 84%
    21:00 +11°C° 0 mm 4 mps 721 mmHg 85%
    22:00 +11°C° 0 mm 3 mps 721 mmHg 87%
    23:00 +11°C° 0 mm 3 mps 722 mmHg 89%

    Tomorrow, 31 March, Tuesday

    Time Temperature Precipitation Wind Pressure Humidity
    00:00 +10°C° 0 mm 2 mps 721 mmHg 89%
    01:00 +10°C° 0 mm 2 mps 721 mmHg 89%
    02:00 +11°C° 0 mm 1 mps 721 mmHg 90%
    03:00 +10°C° 0 mm 1 mps 721 mmHg 90%
    04:00 +10°C° 0 mm 1 mps 721 mmHg 90%
    05:00 +9°C° 0 mm 0 mps 721 mmHg 90%
    06:00 +11°C° 0 mm 1 mps 721 mmHg 83%
    07:00 +13°C° 0 mm 1 mps 721 mmHg 76%
    08:00 +15°C° 0 mm 2 mps 722 mmHg 68%
    09:00 +16°C° 0 mm 3 mps 722 mmHg 64%
    10:00 +17°C° 0 mm 3 mps 722 mmHg 60%
    11:00 +18°C° 0 mm 4 mps 722 mmHg 56%
    12:00 +17°C° 0.4 mm 4 mps 721 mmHg 62%
    13:00 +15°C° 0.4 mm 4 mps 721 mmHg 69%
    14:00 +14°C° 0.4 mm 5 mps 720 mmHg 75%
    15:00 +15°C° 0.1 mm 5 mps 720 mmHg 74%
    16:00 +15°C° 0.1 mm 5 mps 719 mmHg 72%
    17:00 +15°C° 0.1 mm 5 mps 719 mmHg 71%
    18:00 +14°C° 0.2 mm 5 mps 719 mmHg 76%
    19:00 +13°C° 0.2 mm 5 mps 719 mmHg 80%
    20:00 +13°C° 0.2 mm 6 mps 718 mmHg 84%
    21:00 +11°C° 0.5 mm 6 mps 718 mmHg 86%
    22:00 +11°C° 0.5 mm 6 mps 718 mmHg 88%
    23:00 +10°C° 0.5 mm 6 mps 718 mmHg 90%

    Day after tomorrow, 1 April, Wednesday

    Time Temperature Precipitation Wind Pressure Humidity
    00:00 +10°C° 0.9 mm 6 mps 718 mmHg 90%
    01:00 +10°C° 0.9 mm 6 mps 717 mmHg 90%
    02:00 +10°C° 0.9 mm 7 mps 717 mmHg 90%
    03:00 +10°C° 0.5 mm 6 mps 717 mmHg 91%
    04:00 +11°C° 0.5 mm 4 mps 717 mmHg 92%
    05:00 +10°C° 0.5 mm 3 mps 717 mmHg 93%
    06:00 +12°C° 0.4 mm 4 mps 717 mmHg 87%
    07:00 +13°C° 0.4 mm 4 mps 717 mmHg 81%
    08:00 +14°C° 0.4 mm 4 mps 717 mmHg 75%
    09:00 +15°C° 0.3 mm 4 mps 717 mmHg 71%
    10:00 +16°C° 0.3 mm 5 mps 717 mmHg 67%
    11:00 +17°C° 0.3 mm 6 mps 718 mmHg 63%
    12:00 +17°C° 0.5 mm 6 mps 717 mmHg 63%
    13:00 +17°C° 0.5 mm 6 mps 717 mmHg 63%
    14:00 +18°C° 0.5 mm 7 mps 717 mmHg 63%
    15:00 +17°C° 0.6 mm 7 mps 717 mmHg 66%
    16:00 +16°C° 0.6 mm 7 mps 717 mmHg 69%
    17:00 +15°C° 0.6 mm 7 mps 717 mmHg 73%
    18:00 +14°C° 0.1 mm 7 mps 718 mmHg 77%
    19:00 +12°C° 0.1 mm 7 mps 718 mmHg 82%
    20:00 +11°C° 0.1 mm 6 mps 719 mmHg 87%
    21:00 +11°C° 0 mm 6 mps 719 mmHg 88%
    22:00 +12°C° 0 mm 5 mps 719 mmHg 88%
    23:00 +10°C° 0 mm 5 mps 719 mmHg 89%

    2 April, Thursday

    Time Temperature Precipitation Wind Pressure Humidity
    00:00 +10°C° 0 mm 5 mps 719 mmHg 89%
    01:00 +10°C° 0 mm 5 mps 719 mmHg 89%
    02:00 +10°C° 0 mm 5 mps 719 mmHg 90%
    03:00 +11°C° 0 mm 4 mps 719 mmHg 90%
    04:00 +10°C° 0 mm 4 mps 720 mmHg 91%
    05:00 +10°C° 0 mm 3 mps 720 mmHg 92%
    06:00 +11°C° 0 mm 4 mps 720 mmHg 86%
    07:00 +12°C° 0 mm 5 mps 721 mmHg 80%
    08:00 +13°C° 0 mm 6 mps 721 mmHg 74%
    09:00 +15°C° 0 mm 6 mps 722 mmHg 69%
    10:00 +16°C° 0 mm 6 mps 722 mmHg 63%
    11:00 +17°C° 0 mm 7 mps 722 mmHg 57%
    12:00 +17°C° 0 mm 7 mps 722 mmHg 56%
    13:00 +18°C° 0 mm 8 mps 722 mmHg 55%
    14:00 +18°C° 0 mm 8 mps 721 mmHg 53%
    15:00 +17°C° 0 mm 8 mps 721 mmHg 57%
    16:00 +16°C° 0 mm 8 mps 721 mmHg 61%
    17:00 +15°C° 0 mm 8 mps 721 mmHg 65%
    18:00 +14°C° 0 mm 7 mps 721 mmHg 71%
    19:00 +12°C° 0 mm 7 mps 722 mmHg 76%
    20:00 +11°C° 0 mm 6 mps 722 mmHg 82%
    21:00 +10°C° 0 mm 5 mps 722 mmHg 83%
    22:00 +11°C° 0 mm 4 mps 722 mmHg 85%
    23:00 +11°C° 0 mm 3 mps 722 mmHg 87%

    3 April, Friday

    Time Temperature Precipitation Wind Pressure Humidity
    00:00 +10°C° 0 mm 3 mps 721 mmHg 88%
    01:00 +10°C° 0 mm 3 mps 721 mmHg 89%
    02:00 +10°C° 0 mm 2 mps 721 mmHg 90%
    03:00 +10°C° 0 mm 2 mps 721 mmHg 90%
    04:00 +10°C° 0 mm 3 mps 721 mmHg 89%
    05:00 +10°C° 0 mm 3 mps 721 mmHg 89%
    06:00 +11°C° 0.1 mm 4 mps 721 mmHg 83%
    07:00 +12°C° 0.1 mm 4 mps 721 mmHg 78%
    08:00 +13°C° 0.1 mm 5 mps 722 mmHg 72%
    09:00 +14°C° 0.5 mm 6 mps 722 mmHg 69%
    10:00 +15°C° 0.5 mm 7 mps 722 mmHg 67%
    11:00 +16°C° 0.5 mm 8 mps 722 mmHg 64%
    12:00 +16°C° 0.1 mm 8 mps 722 mmHg 61%
    13:00 +16°C° 0.1 mm 9 mps 722 mmHg 58%
    14:00 +16°C° 0.1 mm 10 mps 721 mmHg 56%
    15:00 +15°C° 0 mm 9 mps 721 mmHg 58%
    16:00 +13°C° 0 mm 9 mps 721 mmHg 59%
    17:00 +12°C° 0 mm 8 mps 721 mmHg 61%
    18:00 +11°C° 0 mm 7 mps 722 mmHg 68%
    19:00 +10°C° 0 mm 7 mps 722 mmHg 76%
    20:00 +9°C° 0 mm 6 mps 723 mmHg 83%
    21:00 +9°C° 0 mm 5 mps 723 mmHg 85%
    22:00 +10°C° 0 mm 4 mps 723 mmHg 88%
    23:00 +9°C° 0 mm 3 mps 723 mmHg 90%

    4 April, Saturday

    Time Temperature Precipitation Wind Pressure Humidity
    00:00 +9°C° 0 mm 3 mps 723 mmHg 90%
    01:00 +9°C° 0 mm 3 mps 723 mmHg 90%
    02:00 +9°C° 0 mm 3 mps 723 mmHg 90%
    03:00 +9°C° 0 mm 2 mps 724 mmHg 91%
    04:00 +9°C° 0 mm 2 mps 724 mmHg 92%
    05:00 +9°C° 0 mm 2 mps 724 mmHg 93%
    06:00 +10°C° 0 mm 2 mps 724 mmHg 87%
    07:00 +12°C° 0 mm 2 mps 725 mmHg 81%
    08:00 +13°C° 0 mm 2 mps 725 mmHg 74%
    09:00 +14°C° 0 mm 2 mps 725 mmHg 68%
    10:00 +16°C° 0 mm 2 mps 725 mmHg 61%
    11:00 +17°C° 0 mm 2 mps 725 mmHg 55%
    12:00 +17°C° 0 mm 2 mps 725 mmHg 53%
    13:00 +18°C° 0 mm 2 mps 725 mmHg 50%
    14:00 +19°C° 0 mm 3 mps 725 mmHg 48%
    15:00 +18°C° 0 mm 3 mps 724 mmHg 53%
    16:00 +17°C° 0 mm 3 mps 724 mmHg 57%
    17:00 +17°C° 0 mm 3 mps 724 mmHg 62%
    18:00 +16°C° 0 mm 2 mps 724 mmHg 65%
    19:00 +15°C° 0 mm 2 mps 724 mmHg 69%
    20:00 +14°C° 0 mm 1 mps 725 mmHg 72%
    21:00 +14°C° 0 mm 1 mps 725 mmHg 73%
    22:00 +14°C° 0 mm 1 mps 725 mmHg 73%
    23:00 +14°C° 0 mm 1 mps 725 mmHg 74%
    Show more